Regional Weather Roundup
Issued by NWS

Home | Current Version | Previous Version | Text Only | Print | Product List | Glossary On
Versions: 1 2 3 4 5 6 7 8 9 10 11 12 13 14 15 16 17 18 19 20 21 22 23 24 25 26 27 28 29 30 31 32 33 34 35 36 37 38 39 40 41 42 43 44 45 46 47 48 49 50
000
ASUS43 KDTX 252101
RWRMI
MICHIGAN HOURLY REGIONAL WEATHER ROUNDUP
NATIONAL WEATHER SERVICE DETROIT/PONTIAC MI
500 PM EDT WED APR 25 2018

NOTE: "FAIR" INDICATES FEW OR NO CLOUDS BELOW 12,000 FEET WITH NO
SIGNIFICANT WEATHER AND/OR OBSTRUCTION TO VISIBILITY.

MIZ047>049-052>055-059>063-066>070-074>076-081>083-252200-
SOUTHEAST LOWER MICHIGAN

CITY           SKY/WX    TMP DP  RH WIND       PRES   REMARKS
ADRIAN         FAIR      62  35  36 N14G22    29.92S
ALMA           FAIR      55  33  43 NW10G23   29.97S
ANN ARBOR      FAIR      60  37  42 NW10      29.91S
BAD AXE        CLOUDY    44  36  74 N14       29.98S
CARO           CLOUDY    46  38  74 N12G17    29.97S
DETROIT CITY   CLOUDY    56  38  50 N13G24    29.92F
DETROIT        FAIR      61  38  42 N14G21    29.91F
FLINT          FAIR      52  39  61 N13       29.95S
GROSSE ILE     CLOUDY    59  40  48 N9        29.90F
HILLSDALE      FAIR      61  32  33 NW15      29.92S
HOWELL         PTSUNNY   57  34  42 NW10G17   29.92F

CITY           SKY/WX    TMP DP  RH WIND       PRES   REMARKS
JACKSON        FAIR      60  32  34 W14G21    29.93S
LAMBERTVILLE   FAIR      62  36  38 NW9       29.90S
LANSING        FAIR      58  34  40 NW15      29.95S
LAPEER         CLOUDY    48  39  70 N8        29.96S
MASON          FAIR      60  30  33 NW13G20   29.94S
MONROE         PTSUNNY   60  36  41 N12G21    29.90S
MT. CLEMENS    PTSUNNY   53  47  80 N15G22    29.92S
PONTIAC        PTSUNNY   54  39  57 N16       29.92S
PORT HOPE        N/A     38  37  97 N10G18    29.97R WCI  31
PORT HURON     CLOUDY    45  37  76 NE7       29.95S
TRI CITIES     CLOUDY    49  39  68 E13       29.98R
MIDLAND        FAIR      52  36  53 NW9G21    29.97S
TROY           PTSUNNY   56  39  53 N9G18     29.94F
SAGINAW HB     CLOUDY    48  39  71 NE10      29.97S
$$
MIZ043>046-050>051-056>058-064>065-071>073-077>080-252200-
SOUTHWEST LOWER MICHIGAN

CITY           SKY/WX    TMP DP  RH WIND       PRES   REMARKS
BATTLE CREEK   FAIR      61  33  35 NW12G21   29.95S
BENTON HARBOR  FAIR      44  33  65 N13G21    30.04F
BIG RAPIDS     FAIR      50  29  44 N12G18    29.98S
COLDWATER      FAIR      62  32  32 NW12      29.94S
FREMONT        FAIR      55  26  32 NW10G18   29.99S
HOLLAND        FAIR      47  34  60 NW17G25   30.02F
GRAND RAPIDS   FAIR      60  33  36 NW10      29.96S
IONIA          FAIR      59  32  36 N14       29.94F
KALAMAZOO      FAIR      58  34  40 NW17G25   29.97S
LUDINGTON      FAIR      46  32  58 N15G22    30.04F
MARSHALL       FAIR      61  30  31 N7        29.93S
MOUNT PLEASANT FAIR      53  35  50 N10G20    29.98S
MUSKEGON       FAIR      51  35  54 W14       30.01S
SOUTH HAVEN    FAIR      43  34  71 N15G22    30.04F
$$
MIZ016>042-252200-
NORTHERN LOWER MICHIGAN

CITY           SKY/WX    TMP DP  RH WIND       PRES   REMARKS
ALPENA         CLOUDY    45  34  65 NW12G17   29.99F
BEAVER ISLAND  FAIR      47  30  51 NW8G17    30.04F
BELLAIRE       CLOUDY    46  29  51 NW7       30.03F
CADILLAC       CLOUDY    44  32  63 N9G17     29.99F
CHARLEVOIX     CLOUDY    44  32  62 W9        30.07F
FRANKFORT      FAIR      46  29  52 NW13G18   30.05F
GAYLORD        CLOUDY    42  33  70 VRB5      30.00F
HARBOR SPRINGS CLOUDY    49  29  46 NW9       30.01F
HOUGHTON LAKE  CLOUDY    46  33  60 N13G20    29.99S
MANISTEE       FAIR      47  31  53 NW13      30.04F
OSCODA         CLOUDY    43  36  75 NW10      29.98S
PELLSTON       CLOUDY    49  30  48 NW13      30.01F
ROGERS CITY    CLOUDY    45  32  60 NW12G18   30.00F
TRAVERSE CITY  PTSUNNY   47  32  56 N12       30.04F
$$
MIZ007>008-015-252200-
EASTERN UPPER MICHIGAN

CITY           SKY/WX    TMP DP  RH WIND       PRES   REMARKS
KINROSS        FAIR      41  27  57 NW17      30.01F
MACKINAC ISLAN FAIR      47  28  47 W8G16     30.00F
NEWBERRY       FAIR      40  28  61 NW10      30.03F WCI  33
MUNISING         N/A     37  27  67 NW9       30.08F WCI  30
$$
MIZ004>006-011>014-085-252200-
CENTRAL UPPER MICHIGAN

CITY           SKY/WX    TMP DP  RH WIND       PRES   REMARKS
MANISTIQUE     FAIR      46  23  40 NW7G18    30.04F
ESCANABA       FAIR      51  24  34 N10       30.05F
SAWYER-GWINN   SUNNY     41  25  52 NE12      30.06F
$$
MIZ001>003-009>011-084-252200-
WESTERN UPPER MICHIGAN

CITY           SKY/WX    TMP DP  RH WIND       PRES   REMARKS
IRON MOUNTAIN  FAIR      55  22  27 N10G20    30.01F
HOUGHTON       FAIR      42  22  44 W10       30.06F
COPPER HARBOR    N/A     36  25  64 N17       30.07F WCI  26
IRONWOOD       FAIR      47  23  38 W7        30.08F
$$

ABBREVIATIONS USED IN REMARKS
   TC - TEMPERATURE IN CELSIUS
  WCI - WIND CHILL INDEX
   HX - HEAT INDEX
  VSB - VISIBILITY





USA.gov is the U.S. government's official web portal to all federal, state and local government web resources and services.